SP3VBV-2 Weather Reports


time (UTC)temp
C
wind
direction
speed
KPH
gust
KPH
rain 1hr
cm
rain 24hr
cm
rain mn
cm
humidity
%
barometer
mb
20260504060203 16 0.0 0.0 0.00 0.00 0.00 49 1013.2
20260504050203 15 0.0 0.0 0.00 0.00 0.00 49 1013.1
20260504045203 14 0.0 0.0 0.00 0.00 0.00 49 1012.9
20260504044203 14 0.0 0.0 0.00 0.00 0.00 49 1012.8
20260504043203 14 0.0 0.0 0.00 0.00 0.00 47 1012.7
20260504042205 14 0.0 0.0 0.00 0.00 0.00 47 1012.5
20260504041203 14 0.0 0.0 0.00 0.00 0.00 47 1012.5
20260504035202 13 0.0 0.0 0.00 0.00 0.00 47 1012.4
20260504034202 13 0.0 0.0 0.00 0.00 0.00 47 1012.4
20260504033202 14 0.0 0.0 0.00 0.00 0.00 45 1012.4
20260504032202 13 0.0 0.0 0.00 0.00 0.00 45 1012.4
20260504031202 14 0.0 0.0 0.00 0.00 0.00 45 1012.5
20260504030202 14 0.0 0.0 0.00 0.00 0.00 45 1012.4
20260504025202 14 0.0 0.0 0.00 0.00 0.00 45 1012.4
20260504024202 14 0.0 0.0 0.00 0.00 0.00 45 1012.4
20260504023202 14 0.0 0.0 0.00 0.00 0.00 44 1012.4
20260504022202 14 0.0 0.0 0.00 0.00 0.00 45 1012.4
20260504021202 14 0.0 0.0 0.00 0.00 0.00 45 1012.5
20260504015202 13 0.0 0.0 0.00 0.00 0.00 45 1012.6
20260504014202 14 0.0 0.0 0.00 0.00 0.00 45 1012.5
20260504013202 14 0.0 0.0 0.00 0.00 0.00 44 1012.6
20260504012202 14 0.0 0.0 0.00 0.00 0.00 45 1012.6
20260504011202 14 0.0 0.0 0.00 0.00 0.00 44 1012.6
20260504010202 14 0.0 0.0 0.00 0.00 0.00 44 1012.6
20260504005202 14 0.0 0.0 0.00 0.00 0.00 44 1012.5
20260504004202 14 0.0 0.0 0.00 0.00 0.00 45 1012.6
20260504003202 14 0.0 0.0 0.00 0.00 0.00 44 1012.6
20260504002202 14 0.0 0.0 0.00 0.00 0.00 44 1012.6
20260504001202 15 0.0 0.0 0.00 0.00 0.00 44 1012.7
20260504000204 15 0.0 0.0 0.00 0.00 0.00 43 1012.8
20260503235204 15 0.0 0.0 0.00 0.00 0.00 43 1012.9
20260503234203 15 0.0 0.0 0.00 0.00 0.00 42 1012.9
20260503233203 15 0.0 0.0 0.00 0.00 0.00 41 1012.9
20260503232202 16 0.0 0.0 0.00 0.00 0.00 41 1013.0
20260503231202 16 0.0 0.0 0.00 0.00 0.00 41 1013.1
20260503230202 16 0.0 0.0 0.00 0.00 0.00 41 1013.1
20260503225203 16 0.0 0.0 0.00 0.00 0.00 41 1013.2
20260503224202 16 0.0 0.0 0.00 0.00 0.00 41 1013.2
20260503223204 16 0.0 0.0 0.00 0.00 0.00 41 1013.2
20260503222304 16 0.0 0.0 0.00 0.00 0.00 41 1013.3
20260503221203 16 0.0 0.0 0.00 0.00 0.00 42 1013.3
20260503215201 17 0.0 0.0 0.00 0.00 0.00 42 1013.4
20260503214202 17 0.0 0.0 0.00 0.00 0.00 42 1013.4
20260503213201 17 0.0 0.0 0.00 0.00 0.00 42 1013.4
20260503212201 17 0.0 0.0 0.00 0.00 0.00 42 1013.5
20260503211201 17 0.0 0.0 0.00 0.00 0.00 42 1013.5
20260503210201 17 0.0 0.0 0.00 0.00 0.00 42 1013.4
20260503205202 17 0.0 0.0 0.00 0.00 0.00 42 1013.5
20260503204201 17 0.0 0.0 0.00 0.00 0.00 42 1013.5
20260503203201 17 0.0 0.0 0.00 0.00 0.00 42 1013.5
20260503202201 18 0.0 0.0 0.00 0.00 0.00 42 1013.4
20260503201207 18 0.0 0.0 0.00 0.00 0.00 42 1013.4
20260503200201 18 0.0 0.0 0.00 0.00 0.00 41 1013.4
20260503195201 18 0.0 0.0 0.00 0.00 0.00 41 1013.4
20260503194205 18 0.0 0.0 0.00 0.00 0.00 41 1013.5
20260503193201 18 0.0 0.0 0.00 0.00 0.00 42 1013.4
20260503192211 18 0.0 0.0 0.00 0.00 0.00 41 1013.4
20260503191203 19 0.0 0.0 0.00 0.00 0.00 40 1013.5
20260503190201 19 0.0 0.0 0.00 0.00 0.00 40 1013.3
20260503185201 19 0.0 0.0 0.00 0.00 0.00 40 1013.2
20260503184209 20 0.0 0.0 0.00 0.00 0.00 39 1013.3
20260503183201 20 0.0 0.0 0.00 0.00 0.00 39 1013.1
20260503182209 20 0.0 0.0 0.00 0.00 0.00 39 1013.1
20260503181201 20 0.0 0.0 0.00 0.00 0.00 38 1012.9
20260503180201 21 0.0 0.0 0.00 0.00 0.00 37 1013.0
20260503180153 21 0.0 0.0 0.00 0.00 0.00 36 1012.8
20260503174201 22 0.0 0.0 0.00 0.00 0.00 35 1012.8
20260503173201 22 0.0 0.0 0.00 0.00 0.00 35 1012.7
20260503172201 23 0.0 0.0 0.00 0.00 0.00 33 1012.8
20260503171202 23 0.0 0.0 0.00 0.00 0.00 32 1012.9
20260503170201 23 0.0 0.0 0.00 0.00 0.00 32 1012.8
20260503150207 25 0.0 0.0 0.00 0.00 0.00 29 1013.3
20260503140218 25 0.0 0.0 0.00 0.00 0.00 27 1013.8
20260503131201 25 0.0 0.0 0.00 0.00 0.00 28 1014.7
20260503130200 25 0.0 0.0 0.00 0.00 0.00 27 1014.7
20260503120200 25 0.0 0.0 0.00 0.00 0.00 31 1015.2
20260503110218 23 0.0 0.0 0.00 0.00 0.00 31 1015.8
20260503090152 21 0.0 0.0 0.00 0.00 0.00 39 1016.9
20260503080159 18 0.0 0.0 0.00 0.00 0.00 43 1017.0
20260503072406 17 0.0 0.0 0.00 0.00 0.00 48 1017.1
20260503072151 17 0.0 0.0 0.00 0.00 0.00 49 1016.9
20260503071151 16 0.0 0.0 0.00 0.00 0.00 49 1017.0
20260503070151 16 0.0 0.0 0.00 0.00 0.00 51 1016.8